OpenBCM V2.0.2 (Linux)

Packet Radio Mailbox

IZ3LSV

[San Dona' di P. JN]

 Login: GUEST





  
LU9DCE > KEPS     08.01.18 18:56l 258 Lines 12951 Bytes #999 (0) @ LUNET
BID : 28897_LU9DCE
Read: GUEST
Subj: SAT TLE OF 8
Path: IZ3LSV<IQ2LB<IQ5KG<IK1NHL<CX2SA<LU1PAA<LU4ECL<LU4ADN<LU9DCE
Sent: 180108/1601Z @:LU9DCE.TOR.BA.ARG.SOAM #:28897 [TORTUGUITAS] FBB7.0.8-beta
From: LU9DCE@LU9DCE.TOR.BA.ARG.SOAM
To  : KEPS@LUNET


            __    _  _  ___  ____   ___  ____    ____  ____  ____
           (  )  / )( \/ _ \(    \ / __)(  __)  (  _ \(  _ \/ ___)
           / (_/\) \/ (\__  )) D (( (__  ) _)    ) _ ( ) _ (\___ \
           \____/\____/(___/(____/ \___)(____)  (____/(____/(____/
               ESTACION DE PACKET RADIO - BUENOS AIRES (GF05OM)
                   BOLETINES INFORMATIVOS PROGRAMADOS (BIP)
                    LU9DCE@GMX.COM - RF 147070 @ 1200 BAUD
                        https://lu9dce.wordpress.com/
                   (IPV6) telnet lu9dce.dynv6.net port 6300

+------------------------------------------------------------------------------+
OSCAR 7
1 07530U 74089B   18008.17201576 -.00000044  00000-0  55149-5 0  9997
2 07530 101.6638 338.0477 0011868 286.0183 142.8605 12.53630581974545
OSCAR 11 (UoSAT 2)
1 14781U 84021B   18008.15739586  .00000065  00000-0  14187-4 0  9993
2 14781  97.6713  51.0090 0007197 243.5069 116.5408 14.82971779820723
OSCAR 19 (LUSAT)
1 20442U 90005G   18008.37406924  .00000012  00000-0  20693-4 0  9995
2 20442  98.5960 307.9792 0010642 261.6951  98.3027 14.32883581461004
KITSAT B
1 22825U 93061C   18007.92298201 +.00000001 +00000-0 +18329-4 0  9995
2 22825 098.8419 341.3204 0009482 093.4957 266.7309 14.30018621266392
POSAT 1
1 22826U 93061D   18008.46652899  .00000004  00000-0  19062-4 0  9991
2 22826  98.8361 341.9300 0010005  83.0596 277.1724 14.30349225266922
RADIO ROSTO
1 23439U 94085A   18007.89127816 -.00000048 +00000-0 -14875-3 0  9997
2 23439 064.8151 248.0821 0162380 210.4636 228.5980 11.27566312948497
JAS 2
1 24278U 96046B   18007.84372190 -.00000072 +00000-0 -38299-4 0  9994
2 24278 098.5317 228.5534 0350624 166.7219 194.3447 13.53080565056301
TECHSAT 1B
1 25397U 98043D   18007.85845246 -.00000005 +00000-0 +16904-4 0  9998
2 25397 098.6339 311.0941 0002258 108.0489 252.0936 14.23637480012695
ISS (ZARYA)
1 25544U 98067A   18008.50023071  .00001526  00000-0  30153-4 0  9995
2 25544  51.6424  94.7915 0003176 353.1402 138.4792 15.54271703 93689
PCSAT
1 26931U 01043C   18008.17613883 -.00000021  00000-0  23895-4 0  9998
2 26931  67.0518 282.2840 0005257 275.5285  84.5217 14.30489917849665
SAUDISAT 1C
1 27607U 02058C   18007.91184256 -.00000028 +00000-0 +16579-4 0  9992
2 27607 064.5538 219.9171 0045672 008.8867 351.3033 14.75410075809184
CUTE-1
1 27844U 03031E   18007.89349306  .00000047  00000-0  41026-4 0  9998
2 27844  98.6885  18.9053 0010745 113.3247 246.9062 14.22087272753419
CUBESAT XI 4
1 27848U 03031J   18007.94915234 +.00000021 +00000-0 +29624-4 0  9999
2 27848 098.6974 019.3015 0010576 122.1863 238.0341 14.21694962753263
MOZHAYETS 4
1 27939U 03042A   18008.53718847  .00000113  00000-0  28748-4 0  9997
2 27939  97.9656 152.0396 0011750 297.3148 135.8853 14.66647211763410
CUBESAT XI 5
1 28895U 05043F   18007.88206368  .00000121  00000-0  32131-4 0  9999
2 28895  97.8854 166.0524 0016178 212.3966 147.6245 14.63495302650424
CUTE-1.7+APD II
1 32785U 08021C   18008.21338283  .00000183  00000-0  25510-4 0  9992
2 32785  97.5541  27.9800 0012499 202.9694 157.0966 14.88041867525385
DELFI C3
1 32789U 08021G   18007.90387868 +.00001634 +00000-0 +11714-3 0  9996
2 32789 097.5347 066.6270 0013841 122.5653 237.6912 15.05657216527567
SEEDS
1 32791U 08021J   18008.02402347  .00000300  00000-0  36175-4 0  9991
2 32791  97.5472  32.7650 0013282 185.6608 174.4462 14.90439352525652
YUBELEINY
1 32953U 08025A   18008.35816325  .00000031  00000-0  15222-3 0  9996
2 32953  82.5041 112.0852 0019391 195.5371 164.5116 12.43080876436913
PRISM (HITOMI)
1 33493U 09002B   18008.39139724  .00000883  00000-0  84146-4 0  9994
2 33493  98.1459 264.2163 0016424 121.0641 239.2199 14.96031798486456
KKS-1 (KISEKI)
1 33499U 09002H   18008.52348419  .00000083  00000-0  20393-4 0  9994
2 33499  98.3456 185.1723 0010433  82.3616 277.8776 14.75282188481631
SWISSCUBE
1 35932U 09051B   18007.91798388 +.00000114 +00000-0 +36837-4 0  9993
2 35932 098.5213 155.4532 0007250 350.6401 009.4660 14.56108267440070
BEESAT
1 35933U 09051C   18008.43791538  .00000104  00000-0  34378-4 0  9999
2 35933  98.5252 157.4280 0005745   5.2940 354.8317 14.56217611440298
ITUPSAT 1
1 35935U 09051E   18008.33400541  .00000093  00000-0  32452-4 0  9999
2 35935  98.5363 157.5764 0007916 356.5902   3.5239 14.55401036440075
XIWANG-1 (HOPE-1)
1 36122U 09072B   18008.17396338 -.00000040  00000-0  50130-5 0  9998
2 36122 100.0856  30.2360 0008082 119.9916 240.2001 13.16342817387603
TISAT 1
1 36799U 10035E   18007.89579573 +.00000399 +00000-0 +46755-4 0  9994
2 36799 098.0841 140.1187 0012658 021.0595 339.1141 14.90661670406071
JUGNU
1 37839U 11058B   18008.15192574  .00000279  00000-0  71376-5 0  9993
2 37839  19.9615 287.6684 0018830 282.4697 214.9068 14.12605722322717
SRMSAT
1 37841U 11058D   18008.22231479  .00000294  00000-0  16098-4 0  9998
2 37841  19.9733 333.1446 0011926 172.6202 312.5425 14.10595656322269
M-CUBED/EXP-1 PRIME
1 37855U 11061F   18008.50021669  .00000877  00000-0  53212-4 0  9992
2 37855 101.7209 349.3363 0177898 194.6282 164.9743 15.03966126337649
HORYU 2
1 38340U 12025D   18007.56021570  .00000175  00000-0  33782-4 0  9990
2 38340  98.3750  23.6922 0011689   8.3291 351.8109 14.75479816303425
STRAND 1
1 39090U 13009E   18007.53176415 +.00000030 +00000-0 +25729-4 0  9994
2 39090 098.5340 215.8579 0010146 057.8358 302.3810 14.35005699254760
BEESAT 3
1 39134U 13015E   18007.94550020 +.00000944 +00000-0 +54583-4 0  9997
2 39134 064.8640 285.0780 0029485 231.2329 128.6163 15.18697930260183
SOMP
1 39135U 13015F   18007.90706963 +.00000835 +00000-0 +52692-4 0  9991
2 39135 064.8701 296.5136 0030517 255.7505 104.0230 15.16303018259954
BEESAT 2
1 39136U 13015G   18008.21720988  .00000613  00000-0  41965-4 0  9995
2 39136  64.8705 297.8779 0031503 253.7663 105.9996 15.15788653260340
CUBEBUG 1
1 39153U 13018D   18008.18293206  .00000191  00000-0  31939-4 0  9992
2 39153  97.9823 104.3806 0018361 104.0788 256.2467 14.80321088253928
ZACUBE
1 39417U 13066B   18007.63767577  .00000181  00000-0  29471-4 0  9991
2 39417  97.6059  44.6939 0058186 322.0758  37.6363 14.80855614223032
TRITON 1
1 39427U 13066M   18007.94520231 +.00000191 +00000-0 +38242-4 0  9997
2 39427 097.6364 014.5572 0115348 053.2328 307.9400 14.67593546220884
GOMX 1
1 39430U 13066Q   18008.51438881  .00000208  00000-0  46169-4 0  9990
2 39430  97.6805 357.0626 0152940 114.4109 247.3137 14.59001565219876
HUMSAT D
1 39433U 13066T   18007.73023544  .00000328  00000-0  37893-4 0  9999
2 39433  97.6275  69.5416 0029670 255.9366 103.8554 14.91711661224507
50 SAT
1 39436U 13066W   18007.90837761  .00039316  00000-0  59196-3 0  9993
2 39436  97.7120 131.1790 0005574  57.0053 303.1735 15.54706336228246
CUBEBUG 2
1 39440U 13066AA  18007.63696830  .00000182  00000-0  32491-4 0  9997
2 39440  97.6117  32.3338 0080480 357.9425   2.1443 14.75593147222242
FUNCUBE 1
1 39444U 13066AE  18007.91953444 +.00000220 +00000-0 +33811-4 0  9999
2 39444 097.6074 046.2810 0057266 317.0582 042.6168 14.81617561221330
UWE-3
1 39446U 13066AG  18008.54383784  .00000196  00000-0  33006-4 0  9993
2 39446  97.6076  39.0237 0069661 337.4519  22.3636 14.78126713221532
SPROUT
1 39770U 14029E   18008.48074712  .00000728  00000-0  88224-4 0  9997
2 39770  97.8758 110.9420 0009459  22.8553 337.3074 14.86622211196636
UNISAT 6
1 40012U 14033C   18007.91719568 +.00000172 +00000-0 +33347-4 0  9994
2 40012 097.8301 249.8986 0058557 356.7920 003.2905 14.73747897191091
DUCHIFAT 1
1 40021U 14033M   18008.18723467  .00000456  00000-0  52938-4 0  9999
2 40021  97.9176 286.6187 0012925 352.2316   7.8700 14.90162907193124
QB50P1
1 40025U 14033R   18008.17454745  .00000268  00000-0  34752-4 0  9997
2 40025  97.9092 283.8709 0012512 357.9957   2.1207 14.88612104192988
CHUBUSAT 1
1 40300U 14070C   18008.46335825  .00000662  00000-0  32457-4 0  9991
2 40300  97.3803  89.4797 0022148 101.1005 313.8718 15.21333172175998
NUDT-PHONESAT
1 40900U 15049B   18008.17406138  .00001799  00000-0  85055-4 0  9992
2 40900  97.4424  18.3462 0012459 224.6677 135.3556 15.20634179127594
ZDPS 2A
1 40901U 15049C   18008.51026661  .00000773  00000-0  42693-4 0  9992
2 40901  97.4586  17.3912 0012555 228.4871 131.5286 15.16787599127451
ZDPS 2B
1 40902U 15049D   18008.19914215  .00000729  00000-0  40672-4 0  9994
2 40902  97.4472  15.3798 0012640 226.5062 133.5121 15.16598062127390
XW-2A
1 40903U 15049E   18008.54603664  .00001634  00000-0  43205-4 0  9998
2 40903  97.4029  41.7047 0012882 243.2641 116.7287 15.39867070129230
KAITUO 1A
1 40904U 15049F   18008.44003880  .00000281  00000-0  18607-4 0  9997
2 40904  97.4568  15.0529 0013306 228.9314 267.4656 15.14839018127312
OBJECT G
1 40905U 15049G   18008.52634588  .00000345  00000-0  22664-4 0  9991
2 40905  97.4552  13.4855 0014817 218.7929 141.2240 15.13823671127266
XW-2C
1 40906U 15049H   18008.55526776  .00000583  00000-0  34738-4 0  9993
2 40906  97.4577  15.0242 0014045 218.5488 141.4742 15.14964925127328
XW-2D
1 40907U 15049J   18008.52273445  .00000637  00000-0  37499-4 0  9990
2 40907  97.4549  14.7116 0013455 216.2320 143.8002 15.15098962127323
LILACSAT 2
1 40908U 15049K   18008.20975026  .00000315  00000-0  21262-4 0  9994
2 40908  97.4655  13.9627 0015039 218.1427 141.8741 15.13375869127172
XW-2F
1 40910U 15049M   18008.52502595  .00000951  00000-0  52626-4 0  9993
2 40910  97.4559  15.7427 0014286 212.8812 147.1533 15.16181121127254
XW-2B
1 40911U 15049N   18008.53466875  .00000623  00000-0  36774-4 0  9997
2 40911  97.4588  15.1968 0013348 216.7041 143.3278 15.15049209127226
